VH314 ZZZZ-YSSY

Flight info

Callsign VH314
Flight time N/A
Altitude 5000
Route DCT HALAS DCT FISHA DCT
Aircraft BG58/L-BG58/C

Departure

Time N/A
Airport ZZZZ

Arrival

Time 2026-05-08 03:29
Airport Sydney Kingsford Smith International Airport (YSSY)
Time Latitude Longitude Altitude Speed Heading
2026-05-08 03:16 -33.90388 151.02803 4049 ft 181 kts 110°
2026-05-08 03:16 -33.90646 151.04276 4149 ft 178 kts 114°
2026-05-08 03:17 -33.90881 151.05753 4148 ft 188 kts 98°
2026-05-08 03:17 -33.90733 151.07353 4084 ft 195 kts 89°
2026-05-08 03:17 -33.90551 151.08965 4105 ft 192 kts 91°
2026-05-08 03:17 -33.90011 151.10474 3862 ft 210 kts 61°
2026-05-08 03:18 -33.89309 151.11974 3917 ft 199 kts 70°
2026-05-08 03:18 -33.88760 151.13513 3824 ft 204 kts 74°
2026-05-08 03:18 -33.88321 151.15119 3729 ft 201 kts 79°
2026-05-08 03:18 -33.87960 151.16740 3618 ft 200 kts 83°
2026-05-08 03:19 -33.87529 151.18323 3625 ft 198 kts 75°
2026-05-08 03:19 -33.87086 151.19907 3459 ft 201 kts 79°
2026-05-08 03:19 -33.86713 151.21544 3274 ft 208 kts 70°
2026-05-08 03:19 -33.85994 151.23019 3330 ft 202 kts 58°
2026-05-08 03:20 -33.85184 151.24400 3219 ft 204 kts 56°
2026-05-08 03:20 -33.84338 151.25777 3096 ft 202 kts 60°
2026-05-08 03:20 -33.83755 151.27281 3048 ft 199 kts 73°
2026-05-08 03:20 -33.83434 151.28896 2999 ft 186 kts 103°
2026-05-08 03:21 -33.84049 151.29968 3288 ft 157 kts 142°
2026-05-08 03:21 -33.84780 151.30981 3363 ft 165 kts 137°
2026-05-08 03:21 -33.85501 151.32068 3530 ft 168 kts 139°
2026-05-08 03:21 -33.86297 151.33135 3516 ft 173 kts 144°
2026-05-08 03:22 -33.87221 151.34042 3573 ft 169 kts 155°
2026-05-08 03:22 -33.88205 151.34797 3662 ft 168 kts 153°
2026-05-08 03:22 -33.89129 151.35660 3783 ft 168 kts 150°
2026-05-08 03:22 -33.90043 151.36529 3880 ft 167 kts 153°
2026-05-08 03:23 -33.90976 151.37185 3796 ft 136 kts 171°
2026-05-08 03:23 -33.91745 151.36951 3427 ft 112 kts 235°
2026-05-08 03:23 -33.92092 151.36022 2562 ft 133 kts 244°
2026-05-08 03:23 -33.92524 151.35016 1955 ft 132 kts 240°
2026-05-08 03:24 -33.92890 151.34085 1632 ft 116 kts 261°
2026-05-08 03:24 -33.92624 151.33190 1456 ft 122 kts 307°
2026-05-08 03:24 -33.91842 151.32676 1406 ft 134 kts 327°
2026-05-08 03:24 -33.90982 151.32218 1273 ft 137 kts 325°
2026-05-08 03:25 -33.90466 151.31409 1079 ft 126 kts 265°
2026-05-08 03:25 -33.90847 151.30476 973 ft 123 kts 238°
2026-05-08 03:25 -33.91316 151.29543 1274 ft 143 kts 246°
2026-05-08 03:25 -33.91640 151.28421 1479 ft 133 kts 252°
2026-05-08 03:26 -33.91889 151.27386 1487 ft 124 kts 255°
2026-05-08 03:26 -33.92109 151.26367 1374 ft 125 kts 254°
2026-05-08 03:26 -33.92305 151.25379 1148 ft 121 kts 253°
2026-05-08 03:26 -33.92533 151.24345 964 ft 145 kts 253°
2026-05-08 03:27 -33.92839 151.23191 893 ft 140 kts 252°
2026-05-08 03:27 -33.93037 151.22194 585 ft 112 kts 255°
2026-05-08 03:27 -33.93196 151.21445 423 ft 78 kts 254°
2026-05-08 03:27 -33.93359 151.20843 381 ft 71 kts 266°
2026-05-08 03:28 -33.93471 151.20267 318 ft 74 kts 252°
2026-05-08 03:28 -33.93613 151.19664 214 ft 75 kts 260°
2026-05-08 03:28 -33.93733 151.19080 117 ft 71 kts 257°
2026-05-08 03:28 -33.93864 151.18528 34 ft 64 kts 256°
2026-05-08 03:29 -33.93981 151.18041 21 ft 57 kts 257°
2026-05-08 03:29 -33.94052 151.17716 17 ft 16 kts 262°
2026-05-08 03:29 -33.94017 151.17635 15 ft 10 kts 340°
2026-05-08 03:29 -33.93950 151.17616 14 ft 10 kts 348°
2026-05-08 03:30 -33.93942 151.17614 14 ft 0 kts 351°
2026-05-08 03:31 -33.93860 151.17607 13 ft 14 kts 27°
2026-05-08 03:31 -33.93855 151.17728 14 ft 16 kts 74°
2026-05-08 03:32 -33.93821 151.17846 18 ft 13 kts 69°
2026-05-08 03:32 -33.93786 151.17976 24 ft 19 kts 70°
2026-05-08 03:32 -33.93755 151.18130 25 ft 19 kts 73°
2026-05-08 03:32 -33.93719 151.18280 25 ft 18 kts 76°
2026-05-08 03:33 -33.93684 151.18428 25 ft 21 kts 74°
2026-05-08 03:33 -33.93639 151.18599 25 ft 21 kts 75°
2026-05-08 03:33 -33.93602 151.18769 25 ft 21 kts 77°
2026-05-08 03:33 -33.93560 151.18837 26 ft 9 kts 15°
2026-05-08 03:34 -33.93511 151.18845 26 ft 4 kts
2026-05-08 03:34 -33.93499 151.18847 26 ft 0 kts 14°
2026-05-08 03:35 -33.93480 151.18853 25 ft 0 kts 17°
2026-05-08 03:35 -33.93475 151.18855 25 ft 8 kts 23°
2026-05-08 03:35 -33.93404 151.18876 25 ft 7 kts 22°
2026-05-08 03:35 -33.93390 151.18866 27 ft 0 kts 287°
2026-05-08 03:36 -33.93393 151.18848 25 ft 1 kts 203°
2026-05-08 03:36 -33.93423 151.18850 25 ft 0 kts 178°
2026-05-08 03:36 -33.93392 151.18856 25 ft 0 kts 202°
2026-05-08 03:37 -33.93406 151.18851 27 ft 0 kts 193°